Wind_Speed
11 12 13 13 14 15 15 16 17 17 17 18 18 19 20 21 22 22 22 22 21 21 20 20 20 19 17 16 15 14 15 15 15 15 16 16 16 17 18 19 21 22 23
13 13 14 15 15 16 17 17 18 18 19 19 20 21 22 22 23 23 23 23 22 22 22 22 21 20 18 17 16 16 16 17 17 17 18 18 19 19 20 20 22 22 24
14 15 16 17 17 18 18 19 19 19 20 21 22 23 23 24 24 24 24 23 23 23 23 22 21 20 18 18 18 18 18 19 20 20 20 21 21 22 22 22 23 24 25
16 17 18 19 19 19 20 20 21 21 22 22 23 24 25 25 26 26 25 25 24 24 23 22 21 20 19 19 20 20 21 21 22 22 23 23 23 23 24 25 25 26 27
18 19 20 20 20 21 21 22 22 23 23 24 24 25 26 26 27 27 26 25 25 24 23 23 23 21 21 21 22 22 23 23 24 24 24 24 24 25 26 26 27 28 29
20 20 21 21 22 22 23 23 23 24 24 25 26 27 27 28 28 28 27 26 26 25 25 25 25 24 24 25 25 24 24 25 25 26 26 26 26 27 28 28 29 30 31
21 22 22 23 23 24 24 24 25 25 27 27 28 28 29 29 29 30 29 28 28 27 27 27 27 27 27 27 27 28 28 28 28 28 28 28 29 29 31 31 32 32 33
22 23 24 24 25 25 26 26 27 27 28 28 29 29 30 30 31 31 30 30 30 29 29 29 29 29 29 29 29 30 30 30 31 31 31 31 31 32 33 34 35 35 36
24 24 25 26 26 27 27 28 28 28 29 29 30 31 31 32 32 32 32 31 31 31 32 32 32 32 32 33 33 33 32 33 33 33 33 33 33 34 35 36 37 38 38
25 26 26 27 28 28 29 29 30 30 31 31 32 32 33 33 33 33 34 34 34 34 34 34 34 35 35 36 36 35 35 35 36 36 36 35 36 37 37 38 39 40 40
27 27 28 29 29 30 30 31 32 32 33 33 34 34 35 35 36 35 36 36 36 36 37 36 36 37 38 38 38 38 38 38 39 39 38 38 38 39 39 40 41 41 42
28 29 30 31 31 32 33 34 34 35 35 36 36 36 36 37 38 38 38 38 39 39 39 39 39 39 40 40 40 40 40 40 40 40 40 40 40 41 41 41 42 43 44
30 31 32 32 33 34 35 36 37 37 38 38 38 38 39 39 40 40 40 40 40 41 41 41 41 41 41 41 41 41 41 41 41 41 41 41 42 43 43 43 44 44 45
32 33 34 35 35 36 37 38 39 39 40 40 40 40 41 41 41 42 42 42 42 43 43 43 42 42 42 43 42 42 41 42 42 42 42 43 44 44 44 44 44 45 46
34 35 36 36 37 38 39 40 40 41 42 42 42 42 42 43 43 43 44 44 44 44 44 44 44 43 44 44 43 43 42 42 42 42 43 43 44 45 44 45 45 46 46
37 37 38 39 39 40 41 41 42 42 43 43 44 45 45 45 45 45 45 46 46 46 46 45 45 44 44 43 44 43 43 43 43 43 43 43 44 45 44 44 44 45 46
39 40 40 41 41 42 42 43 43 43 44 45 45 47 47 47 47 47 47 47 47 47 47 46 45 45 44 44 44 44 43 43 43 43 44 44 44 44 44 44 44 45 45
41 42 42 42 43 44 44 45 45 45 46 46 47 48 49 49 49 49 49 49 48 48 47 46 46 46 45 45 45 45 44 44 43 44 44 45 44 44 45 45 44 44 44
43 44 44 45 45 46 46 47 47 47 48 49 49 50 50 51 51 50 50 50 50 49 48 47 47 47 46 46 46 46 45 44 44 44 45 45 45 45 45 45 44 43 43
45 46 46 47 47 48 48 49 49 50 51 51 52 52 53 52 52 52 52 51 51 50 49 48 48 48 47 47 47 47 46 45 45 45 45 45 44 44 44 44 43 42 41
47 48 48 49 49 50 50 51 52 53 53 54 54 54 54 54 54 53 53 52 51 51 50 49 49 48 48 47 47 47 46 46 46 45 45 44 43 43 43 42 42 41 40
49 50 50 51 51 52 53 54 54 55 55 55 55 55 55 55 54 53 53 52 52 51 51 51 50 48 48 47 47 46 46 46 46 46 44 43 42 42 41 41 41 40 39
51 52 52 53 54 54 55 56 56 56 56 56 56 56 55 54 54 53 53 52 52 51 51 51 49 48 47 47 47 46 46 46 46 44 43 41 40 40 40 40 40 39 38
53 54 54 54 55 56 56 56 57 57 56 56 56 55 54 54 54 53 53 52 52 51 50 49 49 47 46 46 46 45 44 44 44 43 42 41 39 39 39 38 38 38 37
54 55 55 56 56 57 57 57 57 57 57 56 56 55 54 54 53 52 52 52 52 51 50 50 49 48 46 46 46 45 44 43 42 42 41 41 39 38 37 36 36 35 34
56 56 57 57 58 58 58 58 58 58 57 57 56 56 54 54 53 52 52 52 51 51 49 49 49 48 47 45 44 43 42 41 41 41 40 39 37 36 36 34 34 34 34
Wind_Direction
278 286 291 296 300 304 307 309 312 314 316 319 321 323 324 326 327 327 327 327 325 323 321 319 316 312 306 298 293 289 286 281 277 275 273 270 267 263 260 255 250 247 245
278 285 291 295 299 302 305 308 310 312 314 315 317 319 321 322 322 323 323 323 323 320 319 316 313 309 303 297 293 290 287 281 277 275 273 271 270 266 263 260 254 251 248
279 285 291 294 298 300 303 306 308 309 311 312 314 316 318 319 319 319 318 319 319 318 318 316 312 308 302 297 294 292 288 285 280 276 272 270 270 268 263 261 258 255 252
280 285 290 294 297 299 301 303 305 306 308 310 312 314 315 316 317 317 316 315 316 316 316 315 312 307 302 298 295 293 290 287 283 278 273 269 268 268 265 263 261 258 256
281 286 290 293 296 298 300 302 304 305 307 309 310 312 313 314 315 315 315 314 314 314 313 312 310 305 302 298 295 292 289 286 283 280 277 271 267 266 265 264 264 262 259
283 286 290 294 296 298 299 301 302 303 305 307 308 310 311 312 313 313 313 312 311 310 309 308 306 304 301 298 296 292 289 286 283 281 279 274 270 269 267 265 264 263 262
284 287 290 293 295 297 298 299 300 302 304 305 306 308 309 311 311 311 310 309 308 306 305 305 304 301 300 298 295 292 290 287 284 282 280 276 272 271 270 269 267 264 263
285 288 290 292 294 296 298 299 300 301 302 304 305 307 308 309 309 310 310 308 306 305 303 303 301 299 298 296 293 291 289 287 286 284 280 277 275 274 273 271 269 266 264
287 288 290 292 294 295 297 298 299 300 301 303 304 306 307 307 308 308 308 306 304 304 302 301 300 298 296 294 293 290 288 286 285 284 280 277 276 275 275 273 270 268 266
288 289 290 292 293 294 296 297 298 299 300 301 303 304 305 305 306 306 305 305 304 303 302 301 299 297 297 296 294 291 288 286 284 284 281 279 277 276 274 274 271 268 266
288 289 291 293 293 294 295 296 297 298 299 300 301 302 303 303 304 305 304 304 304 303 301 300 299 298 297 296 294 292 289 287 286 283 282 280 277 276 274 273 272 270 267
289 290 291 292 293 294 294 295 296 297 298 299 300 300 301 303 303 304 304 303 303 303 301 300 299 298 297 296 294 292 290 288 286 284 283 280 277 275 274 273 272 270 268
289 290 291 291 291 293 294 294 295 296 297 298 299 300 300 301 302 302 303 303 303 303 302 300 298 297 297 296 294 293 291 288 286 284 283 280 277 276 274 274 272 270 268
289 290 290 291 292 293 294 295 295 296 297 298 298 299 300 301 301 301 301 301 301 302 302 301 298 297 296 296 295 293 291 288 286 285 283 281 278 276 274 273 272 270 269
289 290 290 291 292 294 295 295 295 296 296 297 298 298 300 300 301 300 300 300 301 301 301 300 299 298 297 296 294 292 290 288 286 284 282 281 279 277 275 273 271 270 269
289 290 290 291 292 294 295 295 295 296 296 296 297 298 299 300 300 300 300 300 300 300 300 300 299 298 297 296 294 292 289 288 286 283 282 281 280 278 276 274 272 271 270
290 290 291 291 292 293 294 294 295 295 295 296 297 298 298 299 299 299 299 300 300 299 299 298 297 297 297 296 294 293 291 288 286 284 282 282 281 279 277 275 274 272 270
290 290 291 291 292 293 294 294 294 295 295 296 296 297 298 298 298 298 298 298 298 298 297 296 296 296 296 295 294 294 292 289 287 284 283 282 281 279 278 276 275 272 269
289 290 291 292 293 293 294 294 294 295 295 296 296 296 297 297 297 297 297 297 297 296 296 295 295 295 295 294 293 293 292 290 288 286 284 283 281 279 277 276 275 272 268
289 289 290 291 292 293 293 294 294 295 295 295 296 296 296 296 296 296 296 296 296 295 294 294 294 294 294 293 292 292 291 289 288 287 286 284 282 280 277 275 274 272 268
288 289 289 290 291 292 292 293 293 294 294 295 295 295 295 295 296 296 296 296 295 294 293 292 293 293 292 292 291 290 289 288 288 289 287 285 282 280 277 275 273 270 267
289 289 289 290 290 291 291 292 293 293 294 294 295 295 295 295 296 296 295 295 294 293 292 292 293 292 291 290 290 289 288 287 288 288 287 285 282 279 276 273 272 269 265
289 289 289 290 290 291 291 292 292 293 294 294 294 295 295 295 295 295 295 294 294 293 292 292 293 292 290 289 288 287 287 287 287 286 286 284 281 278 275 274 271 267 264
289 289 289 290 290 291 291 291 292 293 293 293 294 294 294 294 294 294 294 294 293 292 292 292 291 290 289 289 288 287 287 286 285 284 283 282 280 279 276 273 270 265 262
290 290 290 290 291 291 291 291 291 292 292 293 293 293 293 294 294 293 293 292 292 292 292 291 291 289 287 287 287 286 286 285 284 284 283 281 279 277 275 272 268 262 258
290 290 290 290 290 291 290 291 291 292 292 292 292 292 292 293 293 292 292 292 291 292 292 291 290 289 287 286 286 285 284 283 282 282 281 279 277 275 273 270 266 260 255
Height
5876 5876 5875 5874 5872 5871 5869 5867 5865 5863 5860 5858 5855 5852 5849 5845 5842 5838 5834 5831 5827 5824 5821 5818 5815 5813 5811 5810 5810 5810 5809 5809 5809 5810 5809 5809 5809 5810 5810 5811 5812 5813 5815
5872 5872 5871 5870 5868 5867 5865 5863 5861 5859 5856 5854 5851 5848 5845 5841 5837 5833 5829 5826 5822 5818 5815 5812 5809 5807 5805 5804 5804 5804 5804 5804 5804 5804 5804 5804 5804 5804 5805 5806 5807 5808 5809
5868 5868 5867 5865 5864 5862 5860 5858 5856 5854 5852 5849 5846 5843 5840 5836 5832 5828 5824 5820 5816 5813 5809 5806 5803 5801 5800 5799 5799 5798 5798 5797 5797 5797 5798 5798 5798 5798 5799 5800 5801 5802 5803
5864 5863 5862 5861 5859 5857 5856 5854 5851 5849 5847 5844 5841 5838 5834 5831 5827 5822 5818 5814 5811 5807 5804 5801 5798 5796 5795 5794 5793 5792 5791 5791 5790 5789 5790 5790 5791 5791 5792 5793 5794 5795 5796
5859 5858 5857 5855 5854 5852 5850 5848 5846 5844 5841 5838 5835 5832 5828 5825 5820 5816 5812 5808 5805 5801 5798 5796 5793 5791 5790 5788 5787 5786 5784 5783 5782 5782 5782 5782 5783 5784 5784 5785 5786 5786 5788
5854 5853 5851 5850 5848 5846 5844 5842 5840 5837 5835 5832 5829 5825 5822 5818 5814 5810 5806 5802 5799 5796 5793 5790 5788 5786 5784 5782 5780 5778 5777 5776 5775 5774 5774 5774 5775 5775 5776 5776 5777 5778 5779
5848 5847 5845 5844 5842 5840 5838 5835 5833 5830 5828 5825 5821 5818 5814 5811 5807 5803 5799 5795 5792 5789 5786 5784 5781 5779 5776 5774 5773 5771 5769 5768 5767 5766 5765 5765 5766 5766 5766 5766 5767 5767 5768
5842 5840 5839 5837 5835 5833 5831 5828 5825 5823 5820 5817 5814 5810 5807 5803 5799 5795 5791 5788 5784 5781 5778 5776 5773 5771 5768 5766 5764 5762 5760 5758 5757 5756 5755 5755 5755 5754 5755 5755 5755 5756 5757
5835 5833 5832 5830 5828 5825 5823 5820 5817 5815 5812 5809 5806 5802 5799 5795 5791 5787 5783 5779 5776 5772 5769 5767 5764 5762 5759 5757 5754 5752 5750 5748 5746 5745 5744 5743 5743 5742 5742 5742 5742 5743 5744
5828 5826 5824 5822 5820 5817 5815 5812 5809 5806 5804 5801 5797 5794 5790 5786 5783 5778 5774 5771 5767 5763 5760 5757 5754 5751 5748 5745 5743 5740 5738 5737 5735 5733 5732 5731 5730 5729 5728 5728 5728 5728 5729
5820 5818 5816 5814 5811 5809 5806 5803 5800 5798 5795 5792 5788 5785 5781 5777 5773 5769 5765 5760 5757 5753 5749 5746 5743 5740 5737 5734 5730 5728 5726 5724 5722 5720 5719 5718 5716 5716 5715 5714 5713 5713 5714
5812 5810 5808 5805 5803 5800 5797 5794 5791 5788 5785 5782 5778 5775 5771 5767 5763 5758 5754 5750 5746 5742 5738 5735 5731 5728 5724 5721 5718 5715 5712 5710 5708 5706 5705 5703 5702 5701 5700 5700 5699 5698 5699
5804 5801 5799 5796 5793 5790 5787 5784 5781 5778 5774 5771 5767 5764 5760 5756 5751 5747 5743 5739 5735 5731 5727 5723 5719 5715 5711 5708 5704 5701 5698 5695 5693 5692 5690 5689 5687 5686 5685 5684 5683 5683 5683
5794 5792 5789 5786 5783 5780 5777 5773 5770 5767 5763 5760 5756 5752 5748 5744 5739 5735 5731 5727 5723 5719 5715 5711 5707 5702 5698 5695 5691 5687 5684 5681 5679 5677 5675 5674 5672 5671 5670 5668 5668 5667 5667
5784 5781 5778 5776 5773 5769 5766 5762 5759 5756 5751 5748 5744 5740 5736 5732 5727 5723 5718 5714 5710 5706 5701 5698 5693 5689 5685 5681 5677 5673 5670 5667 5664 5662 5660 5659 5657 5655 5654 5652 5651 5651 5651
5774 5771 5767 5764 5761 5758 5755 5751 5747 5744 5740 5735 5731 5727 5723 5719 5714 5710 5705 5701 5696 5692 5687 5684 5680 5675 5671 5667 5663 5659 5656 5653 5650 5647 5645 5643 5642 5640 5639 5637 5636 5635 5635
5762 5759 5756 5753 5749 5746 5742 5739 5735 5731 5727 5723 5719 5714 5710 5705 5701 5696 5692 5687 5683 5678 5673 5669 5665 5661 5657 5653 5649 5645 5642 5638 5635 5633 5630 5628 5626 5624 5623 5622 5621 5619 5619
5750 5747 5744 5740 5737 5733 5729 5726 5722 5718 5714 5710 5706 5701 5696 5692 5687 5682 5677 5673 5669 5664 5659 5655 5651 5646 5642 5639 5635 5631 5627 5624 5621 5618 5616 5613 5611 5609 5607 5606 5605 5603 5603
5737 5734 5731 5727 5723 5720 5716 5712 5708 5704 5700 5696 5691 5687 5682 5677 5672 5667 5662 5658 5653 5649 5645 5640 5636 5632 5628 5624 5620 5617 5613 5609 5606 5603 5601 5598 5596 5593 5592 5590 5589 5588 5587
5724 5721 5717 5713 5710 5706 5702 5698 5694 5689 5685 5681 5676 5672 5666 5662 5657 5652 5647 5642 5638 5633 5629 5625 5621 5617 5613 5609 5605 5602 5598 5595 5591 5588 5585 5583 5580 5578 5576 5575 5574 5573 5572
5710 5706 5703 5699 5695 5691 5687 5683 5678 5674 5670 5665 5661 5656 5650 5645 5641 5636 5631 5627 5622 5618 5613 5609 5605 5601 5597 5594 5590 5586 5583 5580 5576 5573 5570 5568 5565 5563 5561 5560 5559 5558 5558
5695 5691 5687 5684 5680 5676 5671 5667 5662 5658 5653 5649 5644 5639 5634 5629 5625 5620 5615 5611 5606 5602 5597 5593 5589 5585 5582 5579 5575 5571 5568 5565 5561 5558 5555 5553 5551 5548 5547 5546 5545 5545 5545
5679 5675 5671 5667 5663 5659 5655 5650 5646 5641 5636 5632 5627 5622 5617 5613 5608 5604 5599 5595 5590 5586 5581 5577 5573 5570 5566 5563 5559 5556 5553 5550 5546 5543 5541 5538 5536 5535 5533 5532 5532 5531 5532
5662 5658 5654 5650 5646 5642 5637 5633 5628 5624 5619 5615 5610 5605 5601 5596 5592 5587 5583 5578 5574 5570 5565 5561 5557 5554 5551 5547 5544 5541 5538 5535 5532 5529 5527 5525 5523 5521 5520 5519 5518 5519 5519
5646 5642 5637 5633 5629 5625 5620 5616 5611 5607 5602 5597 5593 5588 5584 5579 5575 5570 5566 5562 5558 5554 5550 5545 5542 5539 5536 5532 5529 5526 5524 5521 5517 5514 5513 5511 5509 5508 5507 5506 5506 5506 5507
5628 5624 5620 5615 5611 5606 5602 5598 5593 5589 5584 5580 5575 5571 5566 5562 5558 5554 5549 5545 5541 5537 5533 5530 5526 5523 5520 5517 5514 5512 5509 5506 5504 5501 5498 5497 5496 5495 5494 5494 5494 5494 5495